CW0179 Weather Reports


Display with metric or nautical units.
time (UTC)temp
F
wind
direction
speed
MPH
gust
MPH
rain 1hr
in
rain 24hr
in
rain mn
in
humidity
%
barometer
mb
20260508110032 47 141 0.0 0.0 0.00 0.01 0.01 86 1011.2
20260508105044 46 136 0.0 2.0 0.00 0.01 0.01 89 1011.1
20260508104016 45 158 0.0 1.0 0.00 0.01 0.01 90 1011.1
20260508103019 45 172 0.0 0.0 0.00 0.01 0.01 90 1011.0
20260508101952 45 156 0.0 0.0 0.00 0.01 0.01 90 1010.9
20260508100954 45 156 0.0 0.0 0.00 0.01 0.01 89 1010.9
20260508094753 46 167 0.0 0.0 0.00 0.01 0.01 89 1010.7
20260508093749 46 167 0.0 0.0 0.00 0.01 0.01 89 1010.7
20260508091706 46 167 0.0 0.0 0.00 0.01 0.01 89 1010.4
20260508090635 46 167 0.0 0.0 0.00 0.01 0.01 89 1010.3
20260508085648 46 168 0.0 0.0 0.00 0.01 0.01 89 1010.5
20260508084703 46 158 0.0 0.0 0.00 0.01 0.01 89 1010.4
20260508083644 46 158 0.0 0.0 0.00 0.01 0.01 88 1010.4
20260508081516 46 160 0.0 0.0 0.00 0.04 0.01 87 1010.2
20260508080510 46 186 0.0 1.0 0.00 0.04 0.01 87 1010.3
20260508075532 46 210 0.0 0.0 0.00 0.04 0.01 88 1010.5
20260508073408 45 148 0.0 0.0 0.00 0.07 0.01 87 1010.5
20260508072420 46 147 0.0 0.0 0.00 0.08 0.01 87 1010.7
20260508071403 46 166 0.0 0.0 0.00 0.10 0.01 86 1010.8
20260508070358 46 162 0.0 1.0 0.00 0.10 0.01 85 1010.9
20260508063035 48 133 0.0 1.0 0.00 0.13 0.00 67 1010.2
20260508062020 48 184 0.0 2.0 0.00 0.13 0.00 68 1010.0
20260508061005 47 171 0.0 0.0 0.00 0.17 0.00 69 1008.9
20260508053724 43 143 0.0 0.0 0.00 0.19 0.00 91 1008.8
20260508051630 42 142 0.0 0.0 0.00 0.19 0.00 91 1008.8
20260508050646 42 142 0.0 0.0 0.00 0.19 0.00 91 1008.8
20260508045635 42 143 0.0 0.0 0.00 0.19 0.00 91 1008.6
20260508044655 42 142 0.0 0.0 0.00 0.19 0.00 91 1008.6
20260508043652 42 142 0.0 0.0 0.00 0.19 0.00 91 1008.6
20260508041535 42 143 0.0 0.0 0.00 0.19 0.00 90 1008.8
20260508040523 42 142 0.0 0.0 0.00 0.19 0.00 89 1008.9
20260508035459 43 143 0.0 0.0 0.00 0.19 0.20 87 1008.9
20260508034425 43 142 0.0 0.0 0.00 0.19 0.20 87 1008.8
20260508033418 44 143 0.0 0.0 0.00 0.19 0.20 87 1008.9
20260508032359 44 143 0.0 0.0 0.00 0.19 0.20 86 1008.8
20260508025151 44 143 0.0 0.0 0.00 0.19 0.20 83 1008.8
20260508024146 45 142 0.0 0.0 0.00 0.19 0.20 83 1008.6
20260508023203 45 143 0.0 0.0 0.00 0.19 0.20 82 1008.7
20260508022204 45 143 0.0 0.0 0.00 0.19 0.20 81 1008.6
20260508021130 46 142 0.0 0.0 0.00 0.20 0.20 80 1008.6
20260508020154 46 142 0.0 0.0 0.00 0.20 0.20 79 1008.6
20260508015207 47 143 0.0 0.0 0.00 0.21 0.20 77 1008.6
20260508012958 48 142 0.0 0.0 0.00 0.22 0.20 72 1008.4
20260508012000 49 143 0.0 0.0 0.00 0.22 0.20 70 1008.3
20260508010938 49 143 0.0 0.0 0.00 0.22 0.20 68 1008.4
20260508005959 50 142 0.0 0.0 0.00 0.22 0.20 67 1008.3
20260508003854 51 142 0.0 0.0 0.00 0.22 0.20 63 1007.9
20260508002858 52 142 0.0 0.0 0.00 0.22 0.20 61 1007.8
20260508001900 53 143 0.0 0.0 0.00 0.22 0.20 59 1007.5
20260508000837 54 143 0.0 0.0 0.00 0.22 0.20 57 1007.5
20260507235806 56 143 0.0 0.0 0.00 0.22 0.20 52 1007.4
20260507234807 56 143 0.0 0.0 0.00 0.22 0.20 49 1007.4
20260507233736 58 142 0.0 0.0 0.00 0.22 0.20 46 1007.1
20260507231553 60 136 0.0 0.0 0.00 0.22 0.20 40 1007.1
20260507225409 62 154 0.0 0.0 0.00 0.22 0.20 39 1006.9
20260507224347 63 165 0.0 3.0 0.00 0.22 0.20 37 1006.7
20260507223323 62 191 0.0 0.0 0.00 0.22 0.20 41 1006.8
20260507221154 63 170 0.0 0.0 0.00 0.22 0.20 37 1006.8
20260507220142 65 158 0.0 4.0 0.00 0.22 0.20 37 1006.8
20260507215130 65 136 0.0 6.0 0.00 0.22 0.20 37 1006.6
20260507214121 65 150 0.0 4.0 0.00 0.22 0.20 38 1006.5
20260507213108 66 215 0.0 4.0 0.00 0.22 0.20 36 1006.4
20260507211031 66 155 0.0 6.0 0.00 0.22 0.20 35 1006.3
20260507210048 67 138 0.0 6.0 0.00 0.22 0.20 36 1006.3
20260507205052 66 136 0.0 3.0 0.00 0.22 0.20 39 1006.3
20260507204025 65 186 1.0 8.0 0.00 0.22 0.20 36 1006.3
20260507203006 66 354 1.0 8.0 0.00 0.22 0.20 37 1006.2
20260507201957 65 139 0.0 6.0 0.00 0.22 0.20 39 1006.2
20260507201006 65 148 1.0 6.0 0.00 0.23 0.20 40 1006.2
20260507195956 65 102 1.0 2.0 0.00 0.23 0.20 38 1006.4
20260507195000 65 198 0.0 6.0 0.00 0.24 0.20 39 1006.4
20260507192911 65 155 1.0 10.0 0.00 0.24 0.20 38 1006.8
20260507191850 65 59 1.0 8.0 0.00 0.24 0.20 37 1006.9
20260507190849 65 197 0.0 5.0 0.00 0.24 0.20 38 1007.0
20260507185845 64 168 0.0 5.0 0.00 0.24 0.20 39 1007.0
20260507184846 64 153 1.0 0.0 0.00 0.24 0.20 36 1007.3
20260507183824 65 184 0.0 4.0 0.00 0.24 0.20 38 1007.3
20260507182812 65 163 0.0 4.0 0.00 0.24 0.20 38 1007.5
20260507181801 64 174 0.0 0.0 0.00 0.24 0.20 43 1007.6
20260507180825 63 109 1.0 6.0 0.00 0.24 0.20 41 1007.7
20260507174631 63 100 1.0 11.0 0.00 0.26 0.20 38 1007.8
20260507173627 63 100 1.0 4.0 0.00 0.27 0.20 41 1008.0
20260507172615 62 170 1.0 7.0 0.00 0.27 0.20 42 1008.1
20260507171640 62 186 2.0 7.0 0.00 0.27 0.20 41 1008.4
20260507170607 62 186 2.0 7.0 0.00 0.28 0.20 42 1008.4
20260507165540 61 266 1.0 9.0 0.00 0.30 0.20 44 1008.6
20260507164515 61 172 1.0 9.0 0.00 0.30 0.20 44 1008.8
20260507162259 60 77 1.0 8.0 0.00 0.30 0.20 45 1009.1
20260507155102 60 188 2.0 9.0 0.00 0.30 0.20 42 1009.5
20260507152849 60 210 1.0 7.0 0.00 0.30 0.20 50 1009.5
20260507151910 60 333 1.0 7.0 0.00 0.30 0.20 48 1009.5
20260507150848 59 148 1.0 4.0 0.00 0.30 0.20 51 1009.7
20260507145828 58 172 2.0 7.0 0.00 0.30 0.20 58 1009.7
20260507144816 58 180 2.0 7.0 0.00 0.30 0.20 59 1009.7
20260507143814 59 278 1.0 7.0 0.00 0.30 0.20 61 1009.6
20260507142805 58 162 1.0 6.0 0.00 0.30 0.20 64 1009.7
20260507141817 57 195 2.0 9.0 0.00 0.30 0.20 65 1009.7
20260507140751 57 107 1.0 9.0 0.00 0.30 0.20 67 1009.7
20260507135730 56 312 1.0 4.0 0.00 0.30 0.20 73 1009.7
20260507134703 55 134 1.0 4.0 0.00 0.30 0.20 73 1009.9
20260507133639 55 145 1.0 9.0 0.00 0.30 0.20 76 1009.8
20260507132605 55 176 2.0 9.0 0.00 0.30 0.20 77 1009.7
20260507130357 53 124 1.0 7.0 0.00 0.30 0.20 85 1009.7
20260507125345 52 203 0.0 3.0 0.00 0.30 0.20 91 1009.9
20260507123148 51 186 0.0 1.0 0.00 0.30 0.20 92 1009.8
20260507122124 50 154 0.0 2.0 0.00 0.30 0.20 93 1009.9
20260507121125 50 177 0.0 1.0 0.00 0.30 0.20 94 1009.8
20260507115111 50 165 0.0 3.0 0.00 0.30 0.20 95 1009.7
20260507114111 50 212 0.0 1.0 0.00 0.30 0.20 96 1009.4
20260507113102 51 153 0.0 3.0 0.00 0.30 0.20 97 1009.3
20260507112124 51 147 0.0 0.0 0.00 0.30 0.20 97 1009.3